Back to catalog

STARLINK-33903

AliveCommunicationsVLEO
NORAD 63828·PAYLOAD·🇺🇸 United States

Launched May 4, 2025 from Cape Canaveral Space Force Station

Loading…

Next Passes (next 24 hours)

TLE

FreshSource: CelesTrak SupGP

Epoch: Sep 15, 2026, 03:36 UTC

1 63828C 25092AA  26258.15048611  .00045966  00000+0  16654-2 0  2585
2 63828  43.0022 182.5672 0001268 270.3719 326.4396 15.27546403    18

Track STARLINK-33903 in real time with AllMySat

Download on the App Store